STARLINK-4693, 53605

Orbit data source: Space-Track

STARLINK-4693, 53605 is a payload satellite owned by SpaceX/Seattle (US) in LEO that was launched on Sun, 28 Aug 2022 UTC via an FALCON 9 launch vehicle from the Air Force Eastern Test Range (AFETR). Payload-class satellites include a variety of spacecraft equipped with specific instruments for various scientific and technological missions. These include communications satellites like Starlink; space stations such as the ISS; scientific satellites like the Hubble; Earth observation satellites from companies like Planet Labs, Umbra, and HawkEye 360; GPS; miniature CubeSats for education and research; and military/defense satellites.

Loading next visibility...
Identifier
53605, 2022-104T
Orbit
LEO
Country
Flag of USUS
Related business
Manufacturer
SpaceX/Seattle
Mission
Operational Commercial Communications
Bus & Motor
STARLINK, Unknown motor
Mass
300 kg wet, ~290 kg dry
Launch date (UTC)
2022-08-28 (3 years ago)
Launch vehicle
FALCON 9
Launch site
Air Force Eastern Test Range (AFETR)
Object type
Payload
Rocket body
Debris
Shape & HBR
Box + 1 Pan, 10.1 m
Radar Cross Section
13.562 m², Large (>1 m²)

Expand to show TLE details & history
Last TLE update: 1 day ago

TLE from 1 day ago
0 STARLINK-4693
1 53605U 22104T   26036.40194557  .00000020  00000-0  19378-4 0  9994
2 53605  53.2193  28.8471 0002314  99.7371 260.3882 15.08827781190747
Epoch: 2026-02-05T09:38Z
TLE epoch observation values (Epoch: 2026-02-05T09:38:48.097Z)
Latitude
-0.00006°
Longitude
108.59196°
Altitude
540.946 km
Speed
7.593 km/s
True Right ascension
01h 55m 23s
True Declination
0° 00' 00"
Sunlit
Object was in daylight at epoch
Visualization orbit readout
Latitude
Unknown
Longitude
Unknown
Altitude
Unknown
Speed
Unknown
Apparent Right ascension
Unknown
Apparent Declination
Unknown
Sunlit
N/A
Visualization observer readout
Local Sidereal Time
13:56:10
Azimuth
Unknown
Elevation
Unknown
Doppler factor
Unknown
Orbital elements
Apogee altitude
541.626 km
Perigee altitude
538.425 km
Semi-major axis
6,918.162 km
Eccentricity
0.00023
Inclination
53.2193°
RAAN
28.8471°
Arg. of periapsis
99.7371°
True anomaly
260.36206°
Mean anomaly
260.3882°
Eccentric anomaly
260.37513°
Mean motion
3.77187 °/min
Orbital period
95.44 mins
BSTAR
0.000019378
Loading maneuver chart data...
Computing Atmospheric mass density...
Loading historical data...
Loading historical data...
Loading historical data...
Loading historical data...
Loading historical data...
Loading historical data...
Loading historical data...

Documentation

Showing up to 5 results
|